Regional Weather Roundup
Issued by NWS

Home | Current Version | Previous Version | Graphics & Text | Print | Product List | Glossary On
Versions: 1 2 3 4 5 6 7 8 9 10 11 12 13 14 15 16 17 18 19 20 21 22 23 24 25 26 27 28 29 30 31 32 33 34 35 36 37 38 39 40 41 42 43 44 45 46 47 48 49 50
000
ASUS43 KOAX 292010
RWRNE

WEATHER ROUNDUP FOR NEBRASKA
NATIONAL WEATHER SERVICE OMAHA NE
300 PM CDT MON MAY 29 2017

NOTES: SATELLITE DATA IS BEING USED TO AUGMENT CLOUD COVER ABOVE
       12000 FEET.
       "FAIR" INDICATES FEW OR NO CLOUDS BELOW 12,000 FEET WITH NO
       SIGNIFICANT WEATHER AND/OR OBSTRUCTIONS TO VISIBILITY.

  * THESE STATIONS DO NOT REPORT WEATHER SUCH AS RAIN...SNOW OR FOG.

NEZ001>004-019>022-054>056-292100-
NEBRASKA PANHANDLE

CITY           SKY/WX    TMP DP  RH WIND       PRES   REMARKS
SCOTTSBLUFF    SUNNY     72  33  24 NW17G29   30.16F
ALLIANCE       MOSUNNY   70  37  29 NW18G25   30.15F
CHADRON        SUNNY     69  34  27 NW16G22   30.13F
GORDON         FAIR      66  39  36 NW8G20    30.14F
KIMBALL        MOSUNNY   68  36  31 N12       30.21F
SIDNEY         CLOUDY    65  42  43 NW16G22   30.19F
$$

NEZ057>060-069>072-079>082-292100-
SOUTHWEST NEBRASKA

CITY           SKY/WX    TMP DP  RH WIND       PRES   REMARKS
NORTH PLATTE   MOSUNNY   73  42  32 NW14G24   30.11F
IMPERIAL       MOSUNNY   75  38  26 NW14      30.14F
LEXINGTON      SUNNY     75  33  21 NW15G28   30.10F
MCCOOK         MOSUNNY   77  41  27 N16G26    30.11F
OGALLALA       PTSUNNY   73  37  26 NW17      30.14F
$$

NEZ005>010-023>029-035>040-094-292100-
NORTH CENTRAL NEBRASKA

CITY           SKY/WX    TMP DP  RH WIND       PRES   REMARKS
VALENTINE      MOSUNNY   68  34  28 NW16G24   30.11F
AINSWORTH      PTSUNNY   67  36  32 NW18G26   30.11F
BROKEN BOW     SUNNY     72  35  25 N12G29    30.10F
O`NEILL        PTSUNNY   66  33  29 NW21G26   30.08F
ORD            MOSUNNY   70  35  27 NW18G29   30.08S
THEDFORD       MOSUNNY   70  37  30 NW16G23   30.13F
$$

NEZ041-046>049-061>064-073>077-083>087-292100-
SOUTH CENTRAL NEBRASKA

CITY           SKY/WX    TMP DP  RH WIND       PRES   REMARKS
GRAND ISLAND   SUNNY     73  37  27 NW13G25   30.08S
AURORA         SUNNY     74  35  24 NW16G25   30.07S
HASTINGS       MOSUNNY   75  38  26 NW12G25   30.08F
HEBRON         PTSUNNY   78  38  24 NW8G17    30.04F
HOLDREGE       SUNNY     73  30  20 N10G22    30.09F
KEARNEY *      MOSUNNY   73  37  27 NW12G23   30.09F
YORK           SUNNY     73  34  23 NW23G29   30.05F
$$

NEZ011>018-030>034-042>045-292100-
NORTHEAST NEBRASKA

CITY           SKY/WX    TMP DP  RH WIND       PRES   REMARKS
NORFOLK        MOSUNNY   70  39  32 NW20G30   30.03S
ALBION         MOSUNNY   69  35  28 NW21G31   30.07S
BLAIR          MOSUNNY   72  38  28 NW18G25   30.01F
FREMONT        PTSUNNY   74  38  27 NW20G33   30.02F
TEKAMAH        MOSUNNY   74  36  25 NW21      29.99F
WAYNE          CLOUDY    68  42  37 NW15G28   30.02S
$$

NEZ050>053-065>068-078-088>093-292100-
SOUTHEAST NEBRASKA

CITY           SKY/WX    TMP DP  RH WIND       PRES   REMARKS
LINCOLN        MOSUNNY   76  36  23 W22G29    30.03F
OMAHA EPPLEY   MOSUNNY   74  38  27 NW22G30   29.99F
BEATRICE       MOSUNNY   78  44  30 W18G24    30.02F
NEBRASKA CITY  MOSUNNY   77  31  18 NW18G26   30.01S
PLATTSMOUTH    MOSUNNY   76  36  23 W17G25    30.01F
$$

NEZ044-045-051>053-067-292100-
OMAHA AREA

CITY           SKY/WX    TMP DP  RH WIND       PRES   REMARKS
OMAHA EPPLEY   MOSUNNY   74  38  27 NW22G30   29.99F
BLAIR          MOSUNNY   72  38  28 NW18G25   30.01F
FREMONT        PTSUNNY   74  38  27 NW20G33   30.02F
MILLARD        MOSUNNY   75  43  31 NW18G26   30.01S
OFFUTT AFB     MOSUNNY   75  39  27 W23G33    29.99F
PLATTSMOUTH    MOSUNNY   76  36  23 W17G25    30.01F
WAHOO          FAIR      76  33  20 W26G43    30.02F
$$




USA.gov is the U.S. government's official web portal to all federal, state and local government web resources and services.